Overview Statistics Trail Chart Weather Telemetry Raw packets
 

This is the latest recevied weather packets stored in our database for station/object SQ9SMC-13. If no packets are shown the sender has not sent any weather packets the latest 10 day(s).

<< 61 62 63 64 65 66 67 >>
Time Temp. Humidity Pressure Rain* Wind** Luminosity Snow
1777281903 11.67° C 31% 1025.1 hPa 0 mm - 593 W/m² -
1777281604 12.22° C 32% 1025.1 hPa 0 mm - 584 W/m² -
1777281303 11.67° C 31% 1025.3 hPa 0 mm - 581 W/m² -
1777281004 12.22° C 31% 1025.3 hPa 0 mm - 576 W/m² -
1777280702 12.22° C 31% 1025.2 hPa 0 mm - 570 W/m² -
1777280403 11.67° C 30% 1025.3 hPa 0 mm - 562 W/m² -
1777280103 11.67° C 31% 1025.4 hPa 0 mm - 557 W/m² -
1777279804 11.67° C 30% 1025.1 hPa 0 mm - 549 W/m² -
1777279503 12.22° C 30% 1025.2 hPa 0 mm - 542 W/m² -
1777279203 12.22° C 30% 1025.4 hPa 0 mm - 533 W/m² -
1777278903 11.67° C 31% 1025.3 hPa 0 mm - 525 W/m² -
1777278604 11.67° C 31% 1025.4 hPa 0 mm - 517 W/m² -
1777278304 11.67° C 30% 1025.4 hPa 0 mm - 509 W/m² -
1777278005 11.11° C 31% 1025.3 hPa 0 mm - 508 W/m² -
1777277704 11.11° C 30% 1025.4 hPa 0 mm - 475 W/m² -
1777277405 11.11° C 30% 1025.3 hPa 0 mm - 458 W/m² -
1777277102 11.11° C 29% 1025.2 hPa 0 mm - 434 W/m² -
1777276803 11.11° C 30% 1025.4 hPa 0 mm - 377 W/m² -
1777276502 11.11° C 33% 1025.3 hPa 0 mm - 453 W/m² -
1777276203 10.56° C 33% 1025.3 hPa 0 mm - 353 W/m² -
1777275903 10.56° C 32% 1025.4 hPa 0 mm - 389 W/m² -
1777275604 11.11° C 30% 1025.3 hPa 0 mm - 447 W/m² -
1777275303 11.11° C 33% 1025.5 hPa 0 mm - 415 W/m² -
1777275003 10.56° C 31% 1025.3 hPa 0 mm - 397 W/m² -
1777274703 10.56° C 33% 1025.3 hPa 0 mm - 387 W/m² -

* Rain latest hour (hover to see other rain measurements)
** Current wind speed in m/s (hover to see current wind gust speed)